[Iaude] MPEC U17: 2022 VV [a=1.01,e=0.22,i=15.0,H=23.69]
    mpec at marsden.cfa.harvard.edu 
    mpec at marsden.cfa.harvard.edu
       
    Mon Oct 16 10:12:39 EDT 2023
    
    
  
M.P.E.C. 2023-U17                              Issued 2023 October 16, 14:11 UT
     The Minor Planet Electronic Circulars contain information on unusual
         minor planets, routine data on comets and natural satellites,
         and occasional editorial announcements.  They are published
    on behalf of Division F of the International Astronomical Union by the
          Minor Planet Center, Smithsonian Astrophysical Observatory,
                          Cambridge, MA 02138, U.S.A.
			  
             Prepared using the Tamkin Foundation Computer Network
                              MPC at CFA.HARVARD.EDU
            URL https://www.minorplanetcenter.net/    ISSN 1523-6714
                                    2022 VV                                     
                           Revision to MPEC 2022-V97                            
Additional Observations:
     K22V00V  C2017 11 22.49314707 00 16.565+53 31 08.51         23.07GVEU017F51
     K22V00V  C2017 11 22.50674107 00 15.829+53 31 57.39         22.79GVEU017F51
     K22V00V  C2017 11 22.52030507 00 15.128+53 32 45.37         22.66GVEU017F51
     K22V00V KC2021 10 28.55601503 52 43.789+21 55 59.90         21.95GVEU017F52
     K22V00V  C2021 11 01.36330003 36 04.025+24 18 41.58         22.40GVEU017F52
     K22V00V  C2021 11 01.36393003 36 03.844+24 18 42.77         22.35GVEU017F52
     K22V00V  C2021 11 01.37599503 36 00.318+24 19 09.89         21.70GVEU017F52
     K22V00V  C2021 11 01.38871803 35 56.647+24 19 38.66         21.40GVEU017F52
     K22V00V  C2021 11 06.35273503 11 26.879+27 13 26.86         21.70GVEU017F52
     K22V00V  C2021 11 06.36423003 11 23.157+27 13 49.80         21.12GVEU017F52
     K22V00V  C2021 11 06.37563803 11 19.440+27 14 12.97         21.36GVEU017F52
     K22V00V  C2021 11 06.38702203 11 15.758+27 14 35.58         21.37GVEU017F52
     K22V00V  C2021 11 11.26305002 45 37.555+29 39 18.82         21.41GVEU017F52
     K22V00V  C2021 11 11.29529502 45 26.976+29 40 12.24         21.81GVEU017F52
     K22V00V  C2021 11 25.22838201 39 29.249+33 32 26.34         22.48GVEU017F51
     K22V00V  C2021 11 25.23965601 39 26.505+33 32 32.80         21.99GVEU017F51
     K22V00V  C2021 11 25.25097001 39 23.791+33 32 38.52         22.50GVEU017F51
     K22V00V  C2021 11 25.26229301 39 21.041+33 32 45.09         21.97GVEU017F51
     K22V00V  C2021 11 28.20898201 28 48.932+33 53 48.40         22.74GVEU017F52
     K22V00V  C2021 11 28.21981201 28 46.626+33 53 52.92         22.51GVEU017F52
     K22V00V  C2021 11 28.24151201 28 42.028+33 54 01.92         21.89GVEU017F52
     K22V00V KC2023 09 18.59914204 23 10.300-12 02 02.05         22.48GVEU017F51
     K22V00V  C2023 09 25.58023804 11 41.369-10 30 25.49         22.70GVEU017F52
     K22V00V  C2023 09 25.59197604 11 39.796-10 30 14.83         22.66GVEU017F52
     K22V00V  C2023 09 25.60365304 11 38.177-10 30 04.27         22.33GVEU017F52
     K22V00V  C2023 09 25.61537804 11 36.609-10 29 54.54         22.32GVEU017F52
     K22V00V KC2023 10 11.43038 03 22 40.29 -05 11 18.4          22.3 GVEU017291
     K22V00V KC2023 10 11.43900 03 22 38.00 -05 11 04.6          22.1 GVEU017291
     K22V00V KC2023 10 11.44811 03 22 35.60 -05 10 49.9          21.9 GVEU017291
     K22V00V KC2023 10 13.52951303 13 34.261-04 13 26.75         22.06GVEU017F51
     K22V00V KC2023 10 15.44583703 04 47.470-03 17 33.50         21.19GVEU017I52
     K22V00V KC2023 10 15.45125003 04 45.920-03 17 23.90         21.23GVEU017I52
     K22V00V KC2023 10 15.45666403 04 44.300-03 17 14.10         21.51GVEU017I52
     K22V00V KC2023 10 15.46207003 04 42.730-03 17 04.40         21.24GVEU017I52
Observer details:
291 LPL/Spacewatch II.  Observer M. J. Brucker.  1.8-m f/2.7 reflector + CCD.
F51 Pan-STARRS 1, Haleakala.  Observers J. Bulger, T. Lowe, P. Minguez, A.
    Schultz, I. Smith.  Measurers K. Chambers, T. de Boer, J. Fairlamb, H.
    Gao, M. Huber, C.-C. Lin, E. Magnier, Y. Ramanjooloo, R. Wainscoat, R.
    Weryk.  1.8-m Ritchey-Chretien + CCD.
F52 Pan-STARRS 2, Haleakala.  Observers J. Bulger, T. Lowe, P. Minguez, A.
    Schultz, I. Smith.  Measurers K. Chambers, T. de Boer, J. Fairlamb, H.
    Gao, M. Huber, C.-C. Lin, E. Magnier, Y. Ramanjooloo, R. Wainscoat, R.
    Weryk.  1.8-m Ritchey-Chretien + CCD.
I52 Steward Observatory, Mt. Lemmon Station.  Observer J. K. Hogan.  Measurers
    E. C. Beshore, D. Fay, J. B. Fazekas, D. C. Fuls, A. R. Gibbs, A. D.
    Grauer, H. Groeller, J. K. Hogan, R. A. Kowalski, S. M. Larson, G. J.
    Leonard, D. Rankin, R. L. Seaman, F. C. Shelly, K. W. Wierzchos.  1.0-m
    prime focus + CCD.
First and last observations above in comparison with prediction:
Residuals in seconds of arc, reference and Delta-T
171122 F51 86.2- 11.9-    231015 I52 20.9- 24.4-    E2023-P36   +0.01 days
Orbital elements:
2022 VV                                                  Earth MOID = 0.2035 AU
Epoch 2023 Sept. 13.0 TT = JDT 2460200.5                Veres                   
M 109.52685              (2000.0)            P               Q                  
n   0.97223535     Peri.  191.74684     -0.63883960     +0.75203911             
a   1.0091486      Node    38.87052     -0.68326626     -0.45768480             
e   0.2214252      Incl.   14.98231     -0.35359749     -0.47430138             
P   1.01           H   23.69          G   0.15           U   2                  
Residuals in seconds of arc
171122 F51  0.1+  0.8-    211128 F52  0.0   0.1+    221112 F52  0.3+  0.3-
171122 F51  0.1-  0.5-    221028 F52  0.3-  0.1-    221114 H21  0.6+  0.4+
171122 F51  0.1+  0.9-    221028 F52  0.0   0.1-    221114 H21  0.5+  0.2+
211028 F52  0.5+  0.3-    221028 F52  0.0   0.2-    221117 F51  0.2-  0.0
211101 F52  0.4-  0.3+    221101 F52  0.2+  0.2+    221117 F51  0.1+  0.1-
211101 F52  0.4-  0.1+    221101 F52  0.0   0.0     221117 F51  0.2+  0.1+
211101 F52  0.5-  0.1-    221101 F52  0.3-  0.1-    230918 F51  0.1+  0.4-
211101 F52  0.2+  0.0     221101 F52  0.0   0.0     230925 F52  0.3+  0.1-
211106 F52  0.1-  0.0     221101 H01  0.0   0.1+    230925 F52  0.5+  0.2+
211106 F52  0.1-  0.2-    221101 H01  0.1+  0.0     230925 F52  0.2-  0.4+
211106 F52  0.4-  0.1+    221101 F51  0.1-  0.1+    230925 F52  0.1+  0.2-
211106 F52  0.2-  0.0     221101 F51  0.1+  0.0     231011 291  0.1+  0.0
211111 F52  0.1-  0.0     221101 H01  0.0   0.0     231011 291  0.1+  0.0
211111 F52  0.2+  0.1-    221101 H01  0.0   0.0     231011 291  0.3+  0.1+
211125 F51  0.1+  0.1+    221102 H21  0.3+  0.0     231013 F51  0.2-  0.1+
211125 F51  0.2-  0.3+    221102 H21  0.1-  0.0     231015 I52  0.1-  0.3+
211125 F51  0.2+  0.2-    221102 H21  0.1+  0.1-    231015 I52  0.5+  0.1+
211125 F51  0.2+  0.2+    221105 I52  0.0   0.5-    231015 I52  0.0   0.1+
211128 F52  0.0   0.0     221105 I52  0.6-  0.6+    231015 I52  0.2+  0.0
211128 F52  0.2-  0.0     221105 I52  0.3-  0.2-
Ephemeris:
2022 VV                  a,e,i = 1.01, 0.22, 15                  q = 0.7857
Date    TT    R. A. (2000) Decl.     Delta      r    Elong.  Phase     V
2023 09 16    04 26 11.8 -12 31 21   0.3026  1.1311   106.9    58.3    23.5
...
2023 10 01    03 58 50.1 -09 01 48   0.2557  1.1695   125.8    44.0    22.8
...
2023 10 09    03 32 29.5 -06 12 57   0.2348  1.1865   139.0    33.5    22.3
...
2023 10 15    03 06 53.3 -03 30 30   0.2242  1.1975   150.4    24.3    22.0
2023 10 16    03 02 12.2 -03 00 28   0.2231  1.1992   152.4    22.7    21.9
2023 10 17    02 57 25.3 -02 29 40   0.2221  1.2009   154.3    21.1    21.9
...
2023 10 23    02 27 21.4 +00 47 45   0.2204  1.2099   165.8    11.7    21.5
...
2023 10 31    01 47 26.5 +05 20 50   0.2304  1.2197   168.6     9.3    21.6
...
2023 11 15    00 51 13.1 +12 27 02   0.2839  1.2306   144.1    28.1    22.7
A. U. Tomatic                (C) Copyright 2023 MPC           M.P.E.C. 2023-U17
    
    
More information about the Iaude
mailing list